{"data":{"norad_id":62012,"intl_designator":"2024-213E","name":"STARLINK-11363 [DTC]","alt_names":[],"object_type":"PAYLOAD","status":"ACTIVE","operator":null,"country":"US","launch_date":"2024-11-18","launch_site_code":"AFWTR","launch_vehicle":null,"mission":null,"orbit_class":"UNKNOWN","rcs_meters":null,"size_class":null,"mass_kg":null,"dimensions":null,"purposes":["comms"],"wikipedia_slug":null,"has_3d_model":false,"image_url":null,"decayed_at":null,"tle_current":{"epoch":"2026-05-24T22:49:08.351040Z","epoch_age_seconds":75714,"freshness":"FRESH","line1":"1 62012U 24213E   26144.95079110  .00101586  00000+0  83189-3 0  9994","line2":"2 62012  53.1583  25.2634 0000915  94.0551 266.0571 15.69745688 86896","mean_motion":15.69745688,"eccentricity":9.15e-5,"inclination_deg":53.1583,"raan_deg":25.2634,"arg_perigee_deg":94.0551,"mean_anomaly_deg":266.0571,"bstar":0.00083189,"rev_number":8689,"period_min":91.734604592843,"perigee_km":359.0081217704,"apogee_km":360.24113214813,"semimajor_km":6737.7616269593,"source":"CELESTRAK","updated_at":"2026-05-25T13:38:19.519120Z"}}}